Other Public Products
Issued by NWS Grand Forks, ND

Home | Current Version | Previous Version | Graphics & Text | Print | Product List | Glossary On
Versions: 1 2 3 4 5 6 7 8 9 10 11 12 13 14 15 16 17 18 19 20 21 22 23 24 25 26 27 28 29 30 31 32 33 34 35 36 37 38 39 40 41 42 43 44 45 46 47 48 49 50
000
FPUS83 KFGF 250431
OPUFGF
PRAIRIE TO PINES WEATHER ROUNDUP
NATIONAL WEATHER SERVICE EASTERN NORTH DAKOTA/GRAND FORKS ND
1100 PM CDT TUE MAY 24 2016

 **SATELLITE DATA USED TO AUGMENT SKY COVER AT AUTOMATED STATIONS**
 *****  WEATHER ACROSS EASTERN NORTH DAKOTA  *****

CITY           SKY/WX    TMP DP  RH WIND       PRES   REMARKS
GRAND FORKS    PTCLDY    66  51  58 E8        29.88R
GRAND FORKS AF MOCLDY    66  51  59 SE5       29.88S
GRAND CITY NWS   N/A     66 N/A N/A E6          N/A
BUXTON           N/A     68  52  58 E5          N/A
DEVILS LAKE    NOT AVBL
FARGO          CLEAR     68  42  38 E9        29.86S
WAHPETON ARPT  CLEAR     68  50  52 E7        29.85S
$$

 *****  WEATHER ACROSS CENTRAL AND WESTERN NORTH DAKOTA  *****

CITY           SKY/WX    TMP DP  RH WIND       PRES   REMARKS
JAMESTOWN      NOT AVBL
BISMARCK       MOCLDY    65  50  58 E8        29.85R
MINOT          CLOUDY    60  43  53 N6        29.86S
MINOT AFB      CLOUDY    61  42  49 N7        29.85S
GARRISON         N/A     63  44  50 N6        29.86S
WILLISTON      PTCLDY    56  38  50 NW8       29.88R
DICKINSON      CLOUDY    56  48  74 E13       29.84F
HETTINGER      CLOUDY    58  45  62 NE12      29.86R
$$

 *****  OTHER OBSERVATIONS NORTHEAST NORTH DAKOTA  *****

CITY           SKY/WX    TMP DP  RH WIND       PRES   REMARKS
WALHALLA       FAIR      63  50  63 CALM      29.89S
LANGDON        FAIR      59  48  67 E7        29.90F
CAVALIER       FAIR      64  54  68 NE6       29.89S
GRAFTON        FAIR      61  57  88 E8        29.90S
CANDO          FAIR      61  45  55 NE8       29.90F
FORT TOTTEN      N/A     66  46  48 E5        29.95S
ROLLA          FAIR      55  45  67 N7        29.91S
RUGBY          FAIR      55  41  58 E6        29.87S
 ***** THE ABOVE OBSERVATIONS ARE NON NWS ARE NOT QUALITY
        CONTROLLED AND MAY MIS-REPORT RAIN FOR SNOW...
$$

 *****  OTHER OBSERVATIONS SOUTHEAST NORTH DAKOTA *****

CITY           SKY/WX    TMP DP  RH WIND       PRES   REMARKS
COOPERSTOWN    NOT AVBL
VALLEY CITY    FAIR      64  55  72 E7        29.90R
OAKES            N/A    N/A N/A N/A MISG        N/A
GWINNER        FAIR      64  48  55 NE9       29.85S
SHEYENNE NWR     N/A     68  45  42 NE7       29.95S
BUFFALO          N/A     62  54  74 NE12        N/A
WYNDMERE         N/A     66  52  59 NE6         N/A
 ***** THE ABOVE OBSERVATIONS ARE NON NWS ARE NOT QUALITY
       CONTROLLED AND MAY MIS-REPORT RAIN FOR SNOW...
$$

  *****  WEATHER ACROSS NORTHERN MINNESOTA  *****

CITY           SKY/WX    TMP DP  RH WIND       PRES   REMARKS
FLAG ISLAND    CLEAR     63  54  72 SE5       29.95R
WARROAD        CLEAR     61  55  82 E10       29.95R
ROSEAU         CLEAR     57  50  77 E8        29.93S
HALLOCK        CLEAR     64  52  63 E7        29.89S HAZE
THF RVR FALLS  CLEAR     66  46  48 NE7       29.92S
HALSTAD        NOT AVBL
FOSSTON        CLEAR     59  50  72 E3        29.92F
BAUDETTE       CLEAR     59  51  75 E12       29.96R
WASKISH        CLEAR     61  54  77 MISG      29.96R
CROOKSTON      CLEAR     66  50  55 E7        29.90S
$$
  *****  WEATHER ACROSS CENTRAL AND WEST MINNESOTA  *****

CITY           SKY/WX    TMP DP  RH WIND       PRES   REMARKS
BEMIDJI        MOCLDY    57  47  70 SE6       29.94R
PARK RAPIDS    CLEAR     63  52  67 E5        29.93S
WADENA         CLEAR     59  55  88 E7        29.92S
DETROIT LAKES  CLEAR     66  52  59 SE7       29.92S
MOORHEAD       CLEAR     66  46  48 E8        29.87F
FERGUS FALLS   CLEAR     70  52  52 E6        29.84S
ELBOW LAKE     FAIR      66  55  68 E10       29.87F
MORRIS MN      MOCLDY    68  55  64 E13       29.86S
STAPLES        PTCLDY    59  54  82 CALM      29.93S
WHEATON        PTCLDY    70  55  60 E13       29.86R
$$
  *****  WEATHER ELSEWHERE ACROSS MINNESOTA  *****

CITY           SKY/WX    TMP DP  RH WIND       PRES   REMARKS
DULUTH         FOG       53  52  96 E13       30.02R VSB 1/2
INTRNTL FALLS  CLEAR     57  51  80 E6        29.97S
ELY            CLEAR     55  50  82 SE7       30.02S
CLOQUET        FOG       54  52  94 E14G22    29.99F VSB 1
BRAINERD       PTCLDY    59  57  93 VRB3      29.94R
HIBBING        MOCLDY    57  55  93 SE8       30.00R
ALEXANDRIA     CLOUDY    64  53  67 E9        29.91R
SAINT CLOUD    CLEAR     65  54  67 NE7       29.91R
MINNEAPOLIS    PTCLDY    74  54  49 SE7       29.91R
$$

  *****  WEATHER ACROSS SOUTH DAKOTA  *****

CITY           SKY/WX    TMP DP  RH WIND       PRES   REMARKS
SIOUX FALLS    PTCLDY    72  61  68 S8        29.85R
BROOKINGS      CLOUDY    68  50  52 SE8       29.85S
WATERTOWN      CLOUDY    69  44  40 E6        29.84F
HURON          CLOUDY    64  54  69 E6        29.80S
SISSETON         N/A     66  48  52 CALM      29.82S
ABERDEEN       MOCLDY    70  49  47 NE12      29.82R
MITCHELL       CLOUDY    71  59  65 SE9       29.82R
PIERRE         RAIN      59  54  83 NW25G32   29.85F
MOBRIDGE       CLOUDY    70  51  51 E12       29.82R
RAPID CITY     CLOUDY    53  49  86 SE9       29.84S
$$

  *****  SOME WEATHER IN NEARBY STATES *****

CITY           SKY/WX    TMP DP  RH WIND       PRES   REMARKS
GLASGOW MT     CLEAR     50  42  74 NE9       29.87R
GREAT FALLS MT CLOUDY    52  40  63 S3        29.90R
CHEYENNE WY    CLEAR     49  42  77 SW10      29.89R
SCOTTSBLUFF NE CLOUDY    56  47  71 NE14G20   29.84S
OMAHA NE       CLOUDY    74  63  68 S10       29.87R
DES MOINES IA  CLOUDY    72  61  68 SE8       29.90S
DAVENPORT IA   CLEAR     74  62  66 S9        29.95R
CHICAGO IL     CLOUDY    76  56  49 S10       29.96S
EAU CLAIRE WI  CLEAR     61  55  81 CALM      29.93S
LA CROSSE WI   CLEAR     69  59  70 SE8       29.92S
$$

  *****  SOME NATIONAL WEATHER *****

CITY           SKY/WX    TMP DP  RH WIND       PRES   REMARKS
LA GUARDIA NY  CLOUDY    65  58  78 CALM      29.98S
RALEIGH NC     PTCLDY    66  56  70 CALM      30.15S
ATLANTA GA     CLEAR     71  54  54 SW3       30.18R
NEW ORLEANS LA PTCLDY    78  72  81 SE9       30.11F
OKLAHOMA CITY  CLOUDY    75  71  87 SE16      29.87R
ALBUQUERQUE NM CLEAR     71  14  11 W8        30.01R
SALT LAKE CITY MOCLDY    58  39  49 SE8       29.91R
LOS ANGELES CA MOCLDY    60  53  77 W7        30.04R
BOISE ID       CLOUDY    64  35  34 NW10      29.85R
SEATTLE WA     MOCLDY    60  50  69 NW3       30.01R
$$

*** WEATHER ACROSS MANITOBA...SASKATCHEWAN AND ONTARIO ***
                ***ONTARIO***

CITY           SKY/WX    TMP DP  RH WIND       PRES   REMARKS
GERALDTON      PTCLDY    46  41  81 E6        30.10R
THUNDER BAY    CLOUDY    54  52  94 E7        30.07R
SIOUX LOOKOUT  PTCLDY    52  50  93 SE5       30.02
TORONTO        PTCLDY    68  43  40 SW8       29.98S
BIG TROUT LK   CLOUDY    46  37  71 E6        30.09S
PICKLE LAKE    NOT AVBL
DRYDEN         CLEAR     52  50  93 E7        30.00S
KENORA         PTCLDY    57  52  82 SE7       29.98R
$$
                *** MANITOBA***

CITY           SKY/WX    TMP DP  RH WIND       PRES   REMARKS
BRANDON        CLEAR     54  50  87 NE10      29.92R
DAUPHIN        CLEAR     52  50  93 NE8       29.93R
ISLAND LAKE    MOCLDY    48  41  76 NE8       30.02
PILOT MOUND      N/A     59  45  58 NE7         N/A
THE PAS        MOCLDY    52  45  76 E5        29.96S
THOMPSON       PTCLDY    45  34  65 E3        30.03S
WINNIPEG       PTCLDY    61  48  63 E9        29.91R
LYNN LAKE      MOCLDY    52  39  62 S8        29.94S
CHURCHILL      CLOUDY    32  25  74 SE10G17   30.15R WCI  24
GILLAM         MOCLDY    43  30  61 SE5       30.08S
$$
                ***SASKATCHEWAN***

CITY           SKY/WX    TMP DP  RH WIND       PRES   REMARKS
ESTEVAN        PTCLDY    54  37  54 NW2       29.89R
KINDERSLEY     MOCLDY    48  46  93 N7        29.88R
LLOYDMINSTER   PTCLDY    48  45  87 SE10      29.88S
PRINCE ALBERT  MOCLDY    50  45  81 E6        29.92R
REGINA         PTCLDY    54  41  62 E2        29.87R
YORKTON        CLEAR     54  50  87 E9        29.88R  C1F1C2F2C3F3C4F4C5F5C6F6C7F7C8F8C9F9CaFaCbFbCcFcCdFdCe!


USA.gov is the U.S. government's official web portal to all federal, state and local government web resources and services.